Weather History for Morrisville, VT

Change the Weather History Date:

Wednesday, February 20, 2013

  Actual Average Record
Temperature  
Mean Temperature 26 °F 20 °F  
Max Temperature 32 °F 32 °F 45 °F (2002)
Min Temperature 20 °F 8 °F 0 °F (2005)
Degree Days  
Heating Degree Days 39 45  
Month to date heating degree days 938 949  
Since 1 July heating degree days 5251 5611  
Cooling Degree Days 0 0  
Month to date cooling degree days 0 0  
Year to date cooling degree days 0 0  
Moisture  
Dew Point 19 °F    
Average Humidity 74    
Maximum Humidity 92    
Minimum Humidity 55    
Precipitation  
Precipitation 0.07 in 0.06 in 0.14 in (1950)
Month to date precipitation 0.84 1.23  
Year to date precipitation 2.39 3.77  
Sea Level Pressure  
Sea Level Pressure 29.64 in    
Wind  
Wind Speed 5 mph (West)    
Max Wind Speed 16 mph    
Max Gust Speed 24 mph    
Visibility 4 miles    
Events Snow    
T = Trace of Precipitation, MM = Missing Value Source: NWS Daily Summary

Daily Weather History Graph

Daily Weather History Graph

Search for Another Location

Airport:

Trip Planner

Search our weather history database for the weather conditions in past years. The results will help you decide how hot, cold, wet, or windy it might be!

Date:

Astronomy

Feb. 20, 2013 Rise Set
Actual Time 6:42 AM EST 5:26 PM EST
Civil Twilight 6:12 AM EST 5:56 PM EST
Nautical Twilight 5:38 AM EST 6:30 PM EST
Astronomical Twilight 5:05 AM EST 7:03 PM EST
Moon 12:38 PM EST (2/20) 3:07 AM EST (2/20)
Length of Visible Light 11h 43m
Length of Day
10h 44m
Waxing Gibbous, 76% of the Moon is Illuminated
Feb 20
Waxing Gibbous
Feb 25
Full
Mar 4
Last Quarter
Mar 11
New
Mar 19
First Quarter

Hourly Weather History & Observations

Time (EST) Temp. Windchill Dew Point Humidity Pressure Visibility Wind Dir Wind Speed Gust Speed Precip Events Conditions
12:27 AM 32.0 °F 28.7 °F 30.2 °F 93% 29.58 in 1.2 mi North 3.5 mph - 0.02 in Snow Light Snow
12:39 AM 32.0 °F 24.2 °F 30.2 °F 93% 29.58 in 1.5 mi NW 9.2 mph - 0.03 in Snow Light Snow
12:49 AM 30.2 °F 23.4 °F 28.4 °F 93% 29.57 in 3.0 mi NW 6.9 mph - 0.03 in Snow Light Snow
12:50 AM 30.9 °F 24.3 °F 28.0 °F 89% 29.60 in 3.0 mi Variable 6.9 mph - 0.03 in Snow Light Snow
1:18 AM 30.2 °F 25.4 °F 24.8 °F 80% 29.57 in 9.0 mi NNE 4.6 mph - 0.00 in   Overcast
1:54 AM 28.9 °F - 25.0 °F 85% 29.60 in 5.0 mi Calm Calm - 0.00 in Snow Light Snow
2:03 AM 28.4 °F - 24.8 °F 86% 29.58 in 4.0 mi Calm Calm - 0.00 in Snow Light Snow
2:21 AM 28.4 °F 24.6 °F 24.8 °F 86% 29.57 in 5.0 mi WNW 3.5 mph - 0.00 in Snow Light Snow
2:54 AM 28.0 °F - 21.0 °F 75% 29.61 in 5.0 mi Calm Calm - 0.00 in Snow Light Snow
3:26 AM 26.6 °F - 21.2 °F 80% 29.58 in 2.5 mi Calm Calm - 0.00 in Snow Light Snow
3:37 AM 26.6 °F - 21.2 °F 80% 29.58 in 4.0 mi Calm Calm - 0.00 in Snow Light Snow
3:54 AM 26.1 °F 21.9 °F 23.0 °F 88% 29.61 in 7.0 mi East 3.5 mph - 0.00 in   Overcast
4:54 AM 26.1 °F - 21.9 °F 84% 29.60 in 10.0 mi Calm Calm - N/A   Overcast
5:54 AM 26.1 °F 21.9 °F 21.0 °F 81% 29.60 in 10.0 mi East 3.5 mph - N/A   Overcast
6:54 AM 27.0 °F 23.0 °F 19.9 °F 75% 29.60 in 9.0 mi SW 3.5 mph - N/A   Overcast
7:54 AM 27.0 °F 20.5 °F 19.0 °F 72% 29.61 in 10.0 mi Variable 5.8 mph - N/A   Overcast
8:54 AM 27.0 °F 20.5 °F 15.1 °F 61% 29.60 in 10.0 mi Variable 5.8 mph - N/A   Overcast
9:54 AM 27.0 °F 19.5 °F 12.9 °F 56% 29.61 in 10.0 mi SSW 6.9 mph - N/A   Overcast
10:54 AM 27.0 °F 20.5 °F 14.0 °F 58% 29.62 in 10.0 mi Variable 5.8 mph - N/A   Overcast
11:54 AM 27.0 °F 19.5 °F 12.9 °F 56% 29.62 in 10.0 mi Variable 6.9 mph - N/A   Overcast
12:54 PM 27.0 °F 18.7 °F 12.0 °F 53% 29.62 in 10.0 mi West 8.1 mph 20.7 mph N/A   Overcast
1:54 PM 26.1 °F 20.5 °F 14.0 °F 60% 29.62 in 6.0 mi SW 4.6 mph - 0.00 in Snow Light Snow
2:54 PM 25.0 °F - 16.0 °F 69% 29.63 in 4.0 mi Calm Calm - 0.00 in Snow Light Snow
3:49 PM 24.8 °F 17.9 °F 15.8 °F 69% 29.61 in 2.5 mi Variable 5.8 mph - 0.00 in Snow Light Snow
3:54 PM 25.0 °F 19.3 °F 17.1 °F 72% 29.64 in 2.5 mi Variable 4.6 mph - 0.00 in Snow Light Snow
3:59 PM 24.8 °F 19.1 °F 17.6 °F 74% 29.61 in 3.0 mi Variable 4.6 mph - 0.00 in Snow Light Snow
4:54 PM 24.1 °F 17.0 °F 15.1 °F 69% 29.66 in 5.0 mi Variable 5.8 mph - 0.00 in Snow Light Snow
5:54 PM 23.0 °F 17.0 °F 15.1 °F 72% 29.69 in 3.0 mi Variable 4.6 mph - 0.00 in Snow Light Snow
6:00 PM 23.0 °F 15.8 °F 15.8 °F 74% 29.65 in 2.5 mi WSW 5.8 mph - 0.00 in Snow Light Snow
6:15 PM 23.0 °F 15.8 °F 15.8 °F 74% 29.66 in 1.5 mi Variable 5.8 mph - 0.00 in Snow Light Snow
6:26 PM 23.0 °F 15.8 °F 17.6 °F 80% 29.67 in 1.0 mi WSW 5.8 mph - 0.00 in Snow Light Snow
6:43 PM 21.2 °F 16.4 °F 17.6 °F 86% 29.67 in 1.2 mi WSW 3.5 mph - 0.01 in Snow Light Snow
6:54 PM 23.0 °F 17.0 °F 17.1 °F 78% 29.71 in 1.2 mi West 4.6 mph - 0.01 in Snow Light Snow
7:06 PM 23.0 °F 14.7 °F 17.6 °F 80% 29.67 in 1.2 mi Variable 6.9 mph - 0.00 in Snow Light Snow
7:15 PM 21.2 °F 11.7 °F 17.6 °F 86% 29.67 in 1.0 mi West 8.1 mph - 0.00 in Snow Light Snow
7:54 PM 21.9 °F 17.2 °F 17.1 °F 82% 29.71 in 1.0 mi Variable 3.5 mph - 0.01 in Snow Light Snow
8:28 PM 23.0 °F 17.0 °F 17.6 °F 80% 29.67 in 1.2 mi Variable 4.6 mph - 0.01 in Snow Light Snow
8:54 PM 23.0 °F 15.8 °F 17.1 °F 78% 29.72 in 1.5 mi WSW 5.8 mph - 0.01 in Snow Light Snow
9:14 PM 23.0 °F 14.7 °F 17.6 °F 80% 29.68 in 2.0 mi Variable 6.9 mph - 0.00 in Snow Light Snow
9:28 PM 23.0 °F 14.7 °F 15.8 °F 74% 29.68 in 1.8 mi West 6.9 mph - 0.00 in Snow Light Snow
9:54 PM 23.0 °F 14.7 °F 16.0 °F 74% 29.72 in 2.0 mi WSW 6.9 mph - 0.00 in Snow Light Snow
10:36 PM 23.0 °F 13.1 °F 15.8 °F 74% 29.70 in 1.0 mi NW 9.2 mph - 0.00 in Snow Light Snow
10:54 PM 19.9 °F 5.7 °F 15.1 °F 81% 29.74 in 1.2 mi NNW 16.1 mph 24.2 mph 0.01 in Snow Light Snow
11:12 PM 19.4 °F 6.0 °F 14.0 °F 80% 29.71 in 1.5 mi NNW 13.8 mph 20.7 mph 0.00 in Snow Light Snow
11:54 PM 18.0 °F 4.8 °F 12.0 °F 78% 29.77 in 1.0 mi NNW 12.7 mph 24.2 mph 0.00 in Snow Light Snow